Flight Track Log - Related Links

Times and Time Zones

All times are in EDT time to prevent confusion due to time zone crossing. See the SWA127 flight status page for this flight to view local times or setup timezone preferences in your user account.

Time Position Orientation Groundspeed Altitude Reporting Facility
EDT Latitude Longitude Course Direction KTS MPH feet Rate Location/Type
Mon 06:37:29 AM 40.4692 -80.1928 160° South 166 191 2,600  Level FAA TRACON SMA TRACON (SMA)
Mon 06:37:49 AM 40.4547 -80.1858 160° South 196 226 3,100 2,100 Climbing FAA TRACON SMA TRACON (SMA)
Mon 06:38:09 AM 40.4314 -80.1867 182° South 223 257 4,000 2,550 Climbing FAA TRACON SMA TRACON (SMA)
Mon 06:38:29 AM 40.4139 -80.1869 181° South 233 268 4,800 2,700 Climbing FAA TRACON SMA TRACON (SMA)
Mon 06:38:49 AM 40.3894 -80.1900 185° South 251 289 5,800 3,150 Climbing FAA TRACON SMA TRACON (SMA)
Mon 06:39:09 AM 40.3608 -80.1931 185° South 270 311 6,900 3,450 Climbing FAA TRACON SMA TRACON (SMA)
Mon 06:39:29 AM 40.3367 -80.1944 183° South 279 321 8,100 3,750 Climbing FAA TRACON SMA TRACON (SMA)
Mon 06:39:49 AM 40.3125 -80.1953 182° South 277 319 9,400 4,200 Climbing FAA TRACON SMA TRACON (SMA)
Mon 06:40:09 AM 40.2831 -80.1972 183° South 276 318 10,900 3,450 Climbing FAA TRACON SMA TRACON (SMA)
Mon 06:40:29 AM 40.2594 -80.1994 184° South 276 318 11,700 2,400 Climbing FAA TRACON SMA TRACON (SMA)
Mon 06:40:49 AM 40.2347 -80.2017 184° South 284 327 12,500 2,250 Climbing FAA TRACON SMA TRACON (SMA)
Mon 06:41:09 AM 40.2028 -80.2042 183° South 300 345 13,200 2,250 Climbing FAA TRACON SMA TRACON (SMA)
Mon 06:41:29 AM 40.1728 -80.2064 183° South 332 382 14,000 2,100 Climbing FAA TRACON SMA TRACON (SMA)
Mon 06:41:49 AM 40.1436 -80.2081 183° South 344 396 14,600 2,100 Climbing FAA TRACON SMA TRACON (SMA)
Mon 06:42:09 AM 40.1056 -80.2108 183° South 365 420 15,400 2,195 Climbing FAA TRACON SMA TRACON (SMA)
Mon 06:42:30 AM 40.0742 -80.2136 184° South 375 432 16,100 2,400 Climbing FAA TRACON SMA TRACON (SMA)
Mon 06:42:49 AM 40.0419 -80.2158 183° South 374 430 17,000 2,923 Climbing FAA TRACON SMA TRACON (SMA)
Mon 06:43:09 AM 40.0022 -80.2186 183° South 374 430 18,000 2,850 Climbing FAA TRACON SMA TRACON (SMA)
Mon 06:43:29 AM 39.9700 -80.2211 183° South 374 430 18,900 2,550 Climbing FAA TRACON SMA TRACON (SMA)
Mon 06:43:49 AM 39.9381 -80.2236 183° South 374 430 19,700 2,341 Climbing FAA TRACON SMA TRACON (SMA)
Mon 06:44:10 AM 39.8978 -80.2267 183° South 376 433 20,500 2,250 Climbing FAA TRACON SMA TRACON (SMA)
Mon 06:44:29 AM 39.8647 -80.2292 183° South 381 438 21,200 2,154 Climbing FAA TRACON SMA TRACON (SMA)
Mon 06:44:49 AM 39.8314 -80.2314 183° South 385 443 21,900 2,400 Climbing FAA TRACON SMA TRACON (SMA)
Mon 06:45:09 AM 39.7897 -80.2342 183° South 389 448 22,800 2,100 Climbing FAA TRACON SMA TRACON (SMA)
Mon 06:45:29 AM 39.7561 -80.2364 183° South 392 451 23,300 1,200 Climbing FAA TRACON SMA TRACON (SMA)
Mon 06:45:44 AM 39.7414 -80.2347 175° South 387 445 23,500 1,565 Climbing Cleveland Center
Mon 06:47:01 AM 39.5842 -80.2447 183° South 392 451 25,700 1,533 Climbing Washington Center
Mon 06:48:01 AM 39.4631 -80.2556 184° South 415 478 27,000 1,750 Climbing Washington Center
Mon 06:49:01 AM 39.3397 -80.2639 183° South 434 499 29,200 2,200 Climbing Washington Center
Mon 06:50:01 AM 39.2244 -80.2753 184° South 434 499 31,400 1,400 Climbing Washington Center
Mon 06:51:01 AM 39.1106 -80.3106 194° South 429 494 32,000 500 Climbing Washington Center
Mon 06:52:01 AM 38.9967 -80.3461 194° South 424 488 32,400 1,200 Climbing Washington Center
Mon 06:53:01 AM 38.8850 -80.3761 192° South 424 488 34,400 1,500 Climbing Washington Center
Mon 06:54:01 AM 38.7731 -80.4089 193° South 418 481 35,400 800 Climbing Washington Center
Mon 06:55:01 AM 38.6567 -80.4492 195° South 423 487 36,000 300 Climbing Washington Center
Mon 06:56:01 AM 38.5575 -80.4797 194° South 423 487 36,000  Level Washington Center
Mon 06:57:01 AM 38.4436 -80.5119 192° South 423 487 36,000  Level Washington Center
Mon 06:58:01 AM 38.3319 -80.5417 192° South 418 481 36,000 -300 Level Washington Center
Mon 06:59:01 AM 38.2039 -80.5594 186° South 418 481 35,400 -500 Descending Washington Center
Mon 07:00:01 AM 38.0886 -80.5756 186° South 418 481 35,000 -200 Descending Washington Center
Mon 07:01:01 AM 37.9708 -80.5942 187° South 424 488 35,000  Level Washington Center
Mon 07:02:01 AM 37.8533 -80.6100 186° South 430 495 35,000  Level Washington Center
Mon 07:04:30 AM 37.5669 -80.6486 186° South 420 483 35,000  Level Atlanta Center
Mon 07:05:30 AM 37.4547 -80.6642 186° South 420 483 35,000  Level Atlanta Center
Mon 07:06:30 AM 37.3406 -80.6819 187° South 420 483 35,000  Level Atlanta Center
Mon 07:07:30 AM 37.2389 -80.6942 185° South 420 483 35,000  Level Atlanta Center
Mon 07:08:30 AM 37.1267 -80.7094 186° South 420 483 35,000  Level Atlanta Center
Mon 07:09:30 AM 37.0103 -80.7247 186° South 420 483 35,000  Level Atlanta Center
Mon 07:10:30 AM 36.8856 -80.7350 184° South 420 483 35,000  Level Atlanta Center
Mon 07:11:30 AM 36.7692 -80.7478 185° South 420 483 35,000  Level Atlanta Center
Mon 07:12:30 AM 36.6692 -80.7569 184° South 415 478 35,000  Level Atlanta Center
Mon 07:13:30 AM 36.5528 -80.7694 185° South 415 478 35,000  Level Atlanta Center
Mon 07:14:30 AM 36.4364 -80.7819 185° South 423 487 35,000  Level Atlanta Center
Mon 07:15:30 AM 36.3200 -80.7972 186° South 423 487 35,000  Level Atlanta Center
Mon 07:16:30 AM 36.1931 -80.8100 185° South 423 487 35,000  Level Atlanta Center
Mon 07:17:30 AM 36.0744 -80.8222 185° South 423 487 35,000  Level Atlanta Center
Mon 07:18:30 AM 35.9581 -80.8347 185° South 423 487 35,000  Level Atlanta Center
Mon 07:19:30 AM 35.8417 -80.8469 185° South 423 487 35,000 500 Level Atlanta Center
Mon 07:20:30 AM 35.7272 -80.8592 185° South 423 487 36,000 500 Climbing Atlanta Center
Mon 07:21:30 AM 35.6086 -80.8714 185° South 423 487 36,000  Level Atlanta Center
Mon 07:22:30 AM 35.5044 -80.8831 185° South 423 487 36,000  Level Atlanta Center
Mon 07:23:32 AM 35.3881 -80.8950 185° South 423 487 36,000  Level Atlanta Center
Mon 07:24:42 AM 35.2508 -80.9106 185° South 423 487 36,000  Level Atlanta Center
Mon 07:26:51 AM 35.0019 -80.9386 185° South 421 484 36,000  Level Jacksonville Center
Mon 07:27:51 AM 34.8833 -80.9517 185° South 421 484 36,000  Level Jacksonville Center
Mon 07:28:51 AM 34.7583 -80.9644 185° South 421 484 36,000  Level Jacksonville Center
Mon 07:29:51 AM 34.6397 -80.9747 184° South 421 484 36,000  Level Jacksonville Center
Mon 07:30:51 AM 34.5231 -80.9875 185° South 426 490 36,000  Level Jacksonville Center
Mon 07:31:51 AM 34.4083 -80.9975 184° South 421 484 36,000  Level Jacksonville Center
Mon 07:32:51 AM 34.2897 -81.0125 186° South 421 484 36,000  Level Jacksonville Center
Mon 07:33:52 AM 34.1794 -81.0250 185° South 416 479 36,000  Level Jacksonville Center
Mon 07:34:51 AM 34.0606 -81.0350 184° South 423 487 36,000  Level Jacksonville Center
Mon 07:35:51 AM 33.9439 -81.0450 184° South 423 487 36,000  Level Jacksonville Center
Mon 07:36:51 AM 33.8250 -81.0550 184° South 423 487 36,000  Level Jacksonville Center
Mon 07:37:51 AM 33.7231 -81.0672 186° South 423 487 36,000  Level Jacksonville Center
Mon 07:38:51 AM 33.6000 -81.0772 184° South 428 493 36,000  Level Jacksonville Center
Mon 07:39:51 AM 33.4833 -81.0869 184° South 428 493 36,000  Level Jacksonville Center
Mon 07:40:51 AM 33.3667 -81.0994 185° South 428 493 36,000  Level Jacksonville Center
Mon 07:41:51 AM 33.2456 -81.1067 183° South 428 493 36,000  Level Jacksonville Center
Mon 07:42:51 AM 33.1269 -81.1192 185° South 428 493 36,000  Level Jacksonville Center
Mon 07:43:51 AM 33.0103 -81.1289 184° South 428 493 36,000  Level Jacksonville Center
Mon 07:44:51 AM 32.8892 -81.1386 184° South 428 493 36,000  Level Jacksonville Center
Mon 07:45:51 AM 32.7683 -81.1483 184° South 428 493 36,000  Level Jacksonville Center
Mon 07:46:51 AM 32.6536 -81.1606 185° South 428 493 36,000  Level Jacksonville Center
Mon 07:47:51 AM 32.5222 -81.1728 184° South 428 493 36,000  Level Jacksonville Center
Mon 07:48:51 AM 32.4011 -81.1678 178° South 423 487 36,000  Level Jacksonville Center
Mon 07:49:51 AM 32.2883 -81.1650 179° South 433 498 36,000  Level Jacksonville Center
Mon 07:50:51 AM 32.1672 -81.1647 180° South 440 506 36,000  Level Jacksonville Center
Mon 07:51:51 AM 32.0442 -81.1597 178° South 440 506 36,000  Level Jacksonville Center
Mon 07:52:51 AM 31.9250 -81.1594 180° South 440 506 36,000  Level Jacksonville Center
Mon 07:53:51 AM 31.7933 -81.1547 178° South 432 497 36,000  Level Jacksonville Center
Mon 07:54:51 AM 31.6744 -81.1544 180° South 437 503 36,000  Level Jacksonville Center
Mon 07:55:51 AM 31.5636 -81.1517 179° South 442 509 36,000  Level Jacksonville Center
Mon 07:56:51 AM 31.4322 -81.1467 178° South 444 511 36,000 -50 Level Jacksonville Center
Mon 07:57:51 AM 31.3089 -81.1467 180° South 444 511 35,900 -550 Descending Jacksonville Center
Mon 07:58:51 AM 31.1858 -81.1467 180° South 444 511 34,900 -950 Descending Jacksonville Center
Mon 07:59:51 AM 31.0625 -81.1439 179° South 437 503 34,000 -500 Descending Jacksonville Center
Mon 08:00:51 AM 30.9414 -81.1414 179° South 437 503 33,900  Descending Jacksonville Center
Mon 08:01:51 AM 30.8244 -81.1386 179° South 437 503 34,000 50 Climbing Jacksonville Center
Mon 08:02:51 AM 30.7033 -81.1361 179° South 437 503 34,000  Level Jacksonville Center
Mon 08:03:51 AM 30.5800 -81.1361 180° South 437 503 34,000  Level Jacksonville Center
Mon 08:04:51 AM 30.4547 -81.1333 179° South 442 509 34,000  Level Jacksonville Center
Mon 08:05:51 AM 30.3336 -81.1308 179° South 442 509 34,000  Level Jacksonville Center
Mon 08:06:51 AM 30.2083 -81.1308 180° South 442 509 34,000  Level Jacksonville Center
Mon 08:07:51 AM 30.0853 -81.1258 178° South 442 509 34,000 -1,200 Level Jacksonville Center
Mon 08:08:51 AM 29.9619 -81.1256 180° South 442 509 31,600 -2,450 Descending Jacksonville Center
Mon 08:09:51 AM 29.8408 -81.1231 179° South 442 509 29,100 -2,450 Descending Jacksonville Center
Mon 08:10:51 AM 29.7239 -81.1228 180° South 432 497 26,700 -2,400 Descending Jacksonville Center
Mon 08:11:51 AM 29.6111 -81.1200 179° South 420 483 24,300 -2,350 Descending Jacksonville Center
Mon 08:12:51 AM 29.5025 -81.1197 180° South 403 464 22,000 -2,150 Descending Jacksonville Center
Mon 08:13:51 AM 29.4025 -81.1192 180° South 385 443 20,000 -2,100 Descending Jacksonville Center
Mon 08:14:51 AM 29.3000 -81.1139 177° South 375 432 17,800 -2,150 Descending Jacksonville Center
Mon 08:15:51 AM 29.1997 -81.1083 177° South 370 426 15,700 -2,150 Descending Jacksonville Center
Mon 08:16:51 AM 29.1036 -81.0983 175° South 359 413 13,500 -1,850 Descending Jacksonville Center
Mon 08:17:51 AM 29.0097 -81.1047 183° South 348 400 12,000 -1,550 Descending Jacksonville Center
Mon 08:18:51 AM 28.9286 -81.1133 185° South 330 380 10,400 -1,600 Descending Jacksonville Center
Mon 08:19:51 AM 28.8431 -81.1244 186° South 317 365 8,800 -1,700 Descending Jacksonville Center
Mon 08:20:51 AM 28.7706 -81.1683 208° Southwest 298 343 7,000 -1,600 Descending Jacksonville Center
Mon 08:21:51 AM 28.7086 -81.2119 212° Southwest 287 330 5,600 -1,339 Descending Jacksonville Center
Mon 08:22:52 AM 28.6467 -81.2531 210° Southwest 267 307 4,300 -1,150 Descending Jacksonville Center
Mon 08:23:51 AM 28.5908 -81.2944 213° Southwest 254 292 3,300 -1,008 Descending Jacksonville Center
Mon 08:24:51 AM 28.5364 -81.2975 183° South 212 244 2,300 -1,000 Descending Jacksonville Center
Mon 08:26:03 AM 28.4833 -81.3000 182° South 132 152 1,100 -826 Descending Orlando TRACON
Mon 08:27:09 AM 28.4500 -81.3000 180° South 130 150 400 -636 Descending Orlando TRACON
Mon 08:29:00 AM 28.4294 -81.3090 180° South  Level Estimated
Mon 08:36:00 AM 28.4294 -81.3090 180° South  Level Estimated
Mon 08:37:00 AM 28.4294 -81.3090 180° South  Level Estimated
Mon 08:38:00 AM 28.4294 -81.3090 180° South  Level Estimated

Login

Don't have an account? Register now (free) for customized features, flight alerts, and more!